Volver al catálogo

FENGYUN 1C DEB

ActivoPO
NORAD 37902·DEBRIS·🇨🇳 China

Lanzado May 10, 1999 desde Taiyuan Satellite Launch Center

Loading…

Próximos Pases (próximas 24 horas)

TLE

ActualizadoSource: Space-Track

Época: Sep 14, 2026, 11:38 UTC

1 37902U 99025ENB 26257.48474028  .00001281  00000-0  14194-2 0  9998
2 37902  98.6728  89.2749 0319121 315.2839  42.2969 13.53564875667064

Sigue FENGYUN 1C DEB en tiempo real con AllMySat

Download on the App Store